Location: New Town
(33.2710°N, 90.7534°W)
Time: 14:16:10
(UTC+00:00)

Explorer 11/Cluster Stage 4 - Visible Passes

Search period start: 08 May 2021 00:00
Search period end: 18 May 2021 00:00
Orbit: 467 x 1257 km, 28.8° (Epoch: 07 May)

Date Brightness Start Highest point End Pass type
(mag) Time Alt. Az. Time Alt. Az. Time Alt. Az.
08 May 8.8 02:55:34 10° SSW 02:58:48 20° S 02:58:48 20° S visible
08 May 7.9 10:14:38 14° SW 10:15:34 14° SSW 10:17:59 10° S visible
09 May 8.3 02:43:53 10° SSW 02:49:41 28° S 02:49:41 28° S visible
09 May 9.6 04:31:54 10° WSW 04:31:54 10° WSW 04:31:54 10° WSW visible
09 May 8.1 10:04:59 13° SSW 10:04:59 13° SSW 10:06:36 10° S visible
10 May 8.0 02:32:17 10° SW 02:39:23 33° SSE 02:40:27 32° SE visible
10 May 9.1 04:20:30 10° WSW 04:22:39 19° WSW 04:22:39 19° WSW visible
11 May 8.0 02:20:46 10° SW 02:28:06 36° SSE 02:31:03 28° ESE visible
11 May 8.5 04:09:08 10° WSW 04:13:13 31° SW 04:13:13 31° SW visible
12 May 7.9 02:09:18 10° SW 02:16:49 40° SSE 02:21:24 22° ESE visible
12 May 7.9 03:57:48 10° WSW 04:03:34 45° SW 04:03:34 45° SW visible
13 May 7.9 01:57:55 10° SW 02:05:32 43° SSE 02:11:33 16° E visible
13 May 7.5 03:46:31 10° WSW 03:53:42 58° SSW 03:53:42 58° SSW visible
14 May 7.8 01:46:36 10° SW 01:54:14 47° SSE 02:01:29 12° E visible
14 May 7.4 03:35:14 10° WSW 03:43:24 64° S 03:43:37 63° S visible
14 May 9.4 05:24:42 10° W 05:25:45 14° W 05:25:45 14° W visible
15 May 7.8 01:35:19 10° WSW 01:42:56 50° SSE 01:50:48 10° E visible
15 May 7.4 03:23:59 10° WSW 03:32:09 65° S 03:33:22 58° SE visible
15 May 9.2 05:13:26 10° W 05:15:29 19° W 05:15:29 19° W visible
16 May 7.8 01:24:05 10° WSW 01:31:39 53° SSE 01:39:37 10° E visible
16 May 7.5 03:12:46 10° W 03:20:53 65° S 03:22:58 50° SE visible
16 May 9.0 05:02:11 10° W 05:05:05 23° WSW 05:05:05 23° WSW visible
17 May 7.7 01:12:54 10° WSW 01:20:23 56° SSE 01:28:24 10° E visible
17 May 7.5 03:01:35 10° W 03:09:38 64° S 03:12:27 42° ESE visible
17 May 8.8 04:50:57 10° W 04:54:34 27° WSW 04:54:34 27° WSW visible
